When you browse on this site, cookies collect data to enhance your experience and personalize the content and advertising you see.
Visit our Privacy Policy to learn more. By continuing to use the site, you agree to this use of cookies and data.
  • In Spain
  • List of Countries
  • For 7 days
  • Water Temperature
  • Weather Map
  • Weather Widgets
  • user-avatar
    Login

    Hourly Weather Frankfurt am Mein

    Today, 14 December, Saturday

    Time Temperature Precipitation Wind Pressure Humidity
    00:00 0°C° 0 mm 4 mps 701 mmHg 87%
    01:00 0°C° 0 mm 4 mps 701 mmHg 87%
    02:00 0°C° 0.3 mm 4 mps 700 mmHg 89%
    03:00 0°C° 0.3 mm 5 mps 699 mmHg 91%
    04:00 0°C° 0.3 mm 5 mps 699 mmHg 92%
    05:00 +1°C° 1.1 mm 5 mps 698 mmHg 91%
    06:00 +1°C° 1.1 mm 5 mps 698 mmHg 90%
    07:00 +2°C° 1.1 mm 5 mps 698 mmHg 90%
    08:00 +2°C° 0.2 mm 6 mps 699 mmHg 87%
    09:00 +2°C° 0.2 mm 6 mps 701 mmHg 85%
    10:00 +2°C° 0.2 mm 7 mps 702 mmHg 83%
    11:00 +2°C° 0.2 mm 7 mps 703 mmHg 77%
    12:00 +2°C° 0.2 mm 8 mps 705 mmHg 72%
    13:00 +2°C° 0.2 mm 8 mps 706 mmHg 66%
    14:00 +3°C° 0.2 mm 7 mps 707 mmHg 72%
    15:00 +2°C° 0.2 mm 6 mps 707 mmHg 78%
    16:00 +2°C° 0.2 mm 5 mps 708 mmHg 84%
    17:00 +2°C° 0.3 mm 5 mps 708 mmHg 82%
    18:00 +2°C° 0.3 mm 6 mps 709 mmHg 81%
    19:00 +3°C° 0.3 mm 6 mps 709 mmHg 80%
    20:00 +2°C° 0 mm 5 mps 710 mmHg 80%
    21:00 +2°C° 0 mm 5 mps 710 mmHg 81%
    22:00 +1°C° 0 mm 4 mps 711 mmHg 81%
    23:00 +2°C° 0 mm 3 mps 710 mmHg 83%

    Tomorrow, 15 December, Sunday

    Time Temperature Precipitation Wind Pressure Humidity
    00:00 +2°C° 0 mm 3 mps 710 mmHg 85%
    01:00 +3°C° 0 mm 2 mps 710 mmHg 88%
    02:00 +2°C° 0.2 mm 3 mps 710 mmHg 90%
    03:00 +3°C° 0.2 mm 3 mps 709 mmHg 92%
    04:00 +3°C° 0.2 mm 3 mps 708 mmHg 94%
    05:00 +4°C° 0.7 mm 4 mps 708 mmHg 91%
    06:00 +6°C° 0.7 mm 5 mps 708 mmHg 88%
    07:00 +7°C° 0.7 mm 5 mps 708 mmHg 85%
    08:00 +5°C° 0.5 mm 6 mps 709 mmHg 84%
    09:00 +5°C° 0.5 mm 6 mps 710 mmHg 84%
    10:00 +4°C° 0.5 mm 6 mps 711 mmHg 83%
    11:00 +5°C° 0 mm 5 mps 712 mmHg 75%
    12:00 +6°C° 0 mm 5 mps 712 mmHg 68%
    13:00 +6°C° 0 mm 5 mps 713 mmHg 61%
    14:00 +5°C° 0 mm 4 mps 714 mmHg 64%
    15:00 +5°C° 0 mm 3 mps 714 mmHg 68%
    16:00 +5°C° 0 mm 2 mps 715 mmHg 72%
    17:00 +5°C° 0 mm 2 mps 715 mmHg 75%
    18:00 +5°C° 0 mm 2 mps 715 mmHg 79%
    19:00 +5°C° 0 mm 2 mps 715 mmHg 83%
    20:00 +5°C° 0.3 mm 2 mps 715 mmHg 86%
    21:00 +4°C° 0.3 mm 2 mps 715 mmHg 89%
    22:00 +4°C° 0.3 mm 2 mps 715 mmHg 92%
    23:00 +5°C° 0.1 mm 2 mps 715 mmHg 93%

    Day after tomorrow, 16 December, Monday

    Time Temperature Precipitation Wind Pressure Humidity
    00:00 +5°C° 0.1 mm 2 mps 715 mmHg 94%
    01:00 +5°C° 0.1 mm 2 mps 715 mmHg 95%
    02:00 +5°C° 0.3 mm 2 mps 715 mmHg 96%
    03:00 +5°C° 0.3 mm 2 mps 715 mmHg 97%
    04:00 +6°C° 0.3 mm 2 mps 715 mmHg 97%
    05:00 +6°C° 0.8 mm 2 mps 715 mmHg 97%
    06:00 +6°C° 0.8 mm 2 mps 715 mmHg 97%
    07:00 +7°C° 0.8 mm 1 mps 715 mmHg 97%
    08:00 +6°C° 0.5 mm 2 mps 715 mmHg 95%
    09:00 +6°C° 0.5 mm 2 mps 715 mmHg 93%
    10:00 +7°C° 0.5 mm 2 mps 715 mmHg 91%
    11:00 +7°C° 0 mm 2 mps 715 mmHg 87%
    12:00 +8°C° 0 mm 2 mps 715 mmHg 83%
    13:00 +8°C° 0 mm 2 mps 714 mmHg 79%
    14:00 +8°C° 0 mm 2 mps 714 mmHg 80%
    15:00 +8°C° 0 mm 2 mps 714 mmHg 81%
    16:00 +7°C° 0 mm 2 mps 713 mmHg 82%
    17:00 +7°C° 0 mm 2 mps 713 mmHg 81%
    18:00 +7°C° 0 mm 2 mps 713 mmHg 81%
    19:00 +7°C° 0 mm 2 mps 713 mmHg 81%
    20:00 +6°C° 0 mm 2 mps 713 mmHg 81%
    21:00 +6°C° 0 mm 2 mps 713 mmHg 81%
    22:00 +5°C° 0 mm 2 mps 713 mmHg 81%
    23:00 +6°C° 0 mm 1 mps 712 mmHg 82%

    17 December, Tuesday

    Time Temperature Precipitation Wind Pressure Humidity
    00:00 +5°C° 0 mm 1 mps 712 mmHg 83%
    01:00 +5°C° 0 mm 1 mps 712 mmHg 84%
    02:00 +5°C° 0 mm 1 mps 712 mmHg 83%
    03:00 +5°C° 0 mm 1 mps 712 mmHg 83%
    04:00 +5°C° 0 mm 1 mps 713 mmHg 83%
    05:00 +5°C° 0 mm 1 mps 713 mmHg 82%
    06:00 +6°C° 0 mm 1 mps 713 mmHg 80%
    07:00 +6°C° 0 mm 1 mps 713 mmHg 79%
    08:00 +6°C° 0 mm 1 mps 713 mmHg 79%
    09:00 +6°C° 0 mm 1 mps 714 mmHg 80%
    10:00 +6°C° 0 mm 1 mps 714 mmHg 80%
    11:00 +7°C° 0 mm 1 mps 714 mmHg 78%
    12:00 +8°C° 0 mm 1 mps 714 mmHg 76%
    13:00 +8°C° 0 mm 1 mps 714 mmHg 74%
    14:00 +7°C° 0 mm 2 mps 714 mmHg 75%
    15:00 +7°C° 0 mm 2 mps 714 mmHg 77%
    16:00 +6°C° 0 mm 2 mps 714 mmHg 78%
    17:00 +6°C° 0 mm 2 mps 714 mmHg 79%
    18:00 +6°C° 0 mm 2 mps 715 mmHg 81%
    19:00 +6°C° 0 mm 2 mps 715 mmHg 82%
    20:00 +6°C° 0 mm 2 mps 715 mmHg 82%
    21:00 +6°C° 0 mm 2 mps 715 mmHg 83%
    22:00 +7°C° 0 mm 1 mps 715 mmHg 83%
    23:00 +7°C° 0 mm 1 mps 715 mmHg 83%

    18 December, Wednesday

    Time Temperature Precipitation Wind Pressure Humidity
    00:00 +7°C° 0 mm 1 mps 716 mmHg 83%
    01:00 +7°C° 0 mm 1 mps 716 mmHg 83%
    02:00 +6°C° 0 mm 2 mps 716 mmHg 84%
    03:00 +6°C° 0 mm 2 mps 717 mmHg 85%
    04:00 +6°C° 0 mm 2 mps 717 mmHg 86%
    05:00 +6°C° 0 mm 2 mps 717 mmHg 88%
    06:00 +7°C° 0 mm 1 mps 718 mmHg 90%
    07:00 +6°C° 0 mm 1 mps 718 mmHg 92%
    08:00 +6°C° 0 mm 1 mps 718 mmHg 92%
    09:00 +6°C° 0 mm 1 mps 719 mmHg 92%
    10:00 +7°C° 0 mm 1 mps 719 mmHg 92%
    11:00 +7°C° 0 mm 1 mps 719 mmHg 88%
    12:00 +7°C° 0 mm 0 mps 719 mmHg 85%
    13:00 +7°C° 0 mm 0 mps 719 mmHg 81%
    14:00 +7°C° 0 mm 0 mps 719 mmHg 84%
    15:00 +7°C° 0 mm 0 mps 719 mmHg 86%
    16:00 +6°C° 0 mm 0 mps 719 mmHg 89%
    17:00 +7°C° 0.5 mm 1 mps 719 mmHg 91%
    18:00 +7°C° 0.5 mm 1 mps 719 mmHg 93%
    19:00 +7°C° 0.5 mm 1 mps 719 mmHg 96%
    20:00 +7°C° 0.6 mm 1 mps 719 mmHg 96%
    21:00 +7°C° 0.6 mm 1 mps 718 mmHg 97%
    22:00 +7°C° 0.6 mm 1 mps 718 mmHg 97%
    23:00 +7°C° 0.2 mm 1 mps 718 mmHg 97%

    19 December, Thursday

    Time Temperature Precipitation Wind Pressure Humidity
    00:00 +6°C° 0.2 mm 1 mps 718 mmHg 96%
    01:00 +6°C° 0.2 mm 1 mps 717 mmHg 96%
    02:00 +6°C° 0 mm 1 mps 717 mmHg 95%
    03:00 +6°C° 0 mm 1 mps 716 mmHg 95%
    04:00 +5°C° 0 mm 1 mps 716 mmHg 95%
    05:00 +5°C° 0 mm 1 mps 716 mmHg 95%
    06:00 +4°C° 0 mm 1 mps 715 mmHg 94%
    07:00 +4°C° 0 mm 1 mps 715 mmHg 94%
    08:00 +3°C° 0 mm 2 mps 715 mmHg 93%
    09:00 +3°C° 0 mm 2 mps 715 mmHg 92%
    10:00 +4°C° 0 mm 2 mps 714 mmHg 90%
    11:00 +4°C° 0 mm 2 mps 714 mmHg 87%
    12:00 +5°C° 0 mm 2 mps 714 mmHg 83%
    13:00 +6°C° 0 mm 2 mps 713 mmHg 80%
    14:00 +6°C° 0 mm 2 mps 713 mmHg 82%
    15:00 +5°C° 0 mm 2 mps 713 mmHg 84%
    16:00 +5°C° 0 mm 2 mps 712 mmHg 86%
    17:00 +5°C° 0 mm 2 mps 712 mmHg 87%
    18:00 +4°C° 0 mm 2 mps 712 mmHg 88%
    19:00 +4°C° 0 mm 2 mps 711 mmHg 90%
    20:00 +4°C° 0 mm 2 mps 711 mmHg 91%
    21:00 +3°C° 0 mm 2 mps 711 mmHg 91%
    22:00 +3°C° 0 mm 2 mps 711 mmHg 92%
    23:00 +4°C° 0 mm 1 mps 710 mmHg 93%
    Show more